[[{"header":{"parameterUnit":"m.s-1","parameterCategory":2,"la1":30.2991,"la2":30.254,"lo1":-89.0895,"lo2":-89.0444,"dy":0.0017,"dx":0.0017,"nx":28,"ny":28,"refTime":"2024-03-11T03:00:00:Z","depth":"0","parameterNumber":2,"parameterNumberName":"U-component_of_CURRENTS"},"data":[0,0,0,0,0,0,0,0,0,0,0,0,0,0,0,0,0,0,0,0,0,0,0,0,0,0,0,0,0,0,0,0,0,0,0,0,0,0,0,0,0,0,0,0,0,0,0,0,0,0,0,0,0,0,0,0,0,0,0.2541,0.2541,0,0.2574,0.2574,0.2574,0.2572,0.2571,0.2571,0.2571,0.258,0.258,0.2581,0,0,0,0,0,0,0,0,0,0,0,0,0,0.2527,0.2527,0.2541,0.2541,0.2542,0.2574,0.2574,0.2575,0.2572,0.2571,0.2571,0.257,0.2579,0.258,0.2581,0,0,0,0,0,0,0,0,0,0,0,0,0,0.2543,0.2527,0.2541,0.2545,0.2546,0.2574,0.2574,0.2575,0.2572,0.2571,0.2571,0.257,0.2579,0.258,0.2581,0.2598,0,0,0.2584,0.2584,0,0,0,0,0,0,0,0,0.2542,0.2543,0.2544,0.2545,0.2546,0.2569,0.2573,0.2582,0.2572,0.2561,0.2571,0.257,0.2575,0.2576,0.2582,0.2598,0.2599,0.2584,0.2584,0.2585,0.2585,0,0,0,0,0,0,0,0.254,0.2542,0.2553,0.2545,0.2546,0.2564,0.2564,0.2575,0.2569,0.2562,0.2562,0.2568,0.2575,0.2582,0.2583,0.2599,0.2584,0.2584,0.2585,0.2585,0.2661,0.2663,0,0,0,0,0,0,0.2537,0.254,0.2552,0.2554,0.2544,0.2564,0.2565,0.2561,0.257,0.2571,0.2568,0.2568,0.258,0.2581,0.2583,0.2615,0.2585,0.2585,0.2586,0.266,0.2662,0.2663,0,0,0,0,0,0,0.2536,0.2537,0.255,0.255,0.2553,0.2565,0.2561,0.2562,0.2569,0.2575,0.2576,0.2573,0.258,0.2582,0.2598,0.2615,0.2586,0.2587,0.2658,0.2661,0.2663,0.2673,0,0,0,0,0,0,0.2535,0.2536,0.2538,0.2549,0.2552,0.257,0.2561,0.2563,0.2574,0.2573,0.258,0.258,0.258,0.2597,0.2599,0.2616,0.2587,0.2656,0.2659,0.2662,0.2671,0.2675,0.2679,0,0,0,0,0,0.2535,0.2537,0.2537,0.2539,0.2551,0.2571,0.2574,0.258,0.2575,0.2583,0.2588,0.258,0.2616,0.2598,0.26,0.2618,0.2655,0.2658,0.2662,0.2669,0.2674,0.2679,0,0,0,0,0,0,0.2534,0.2537,0.2538,0.2541,0.2557,0.257,0.258,0.2583,0.2594,0.2593,0.2592,0.2594,0.262,0.2621,0.2601,0.2652,0.2637,0.2641,0.2642,0.2647,0.2651,0.2663,0.2588,0,0,0,0,0,0.2534,0.2535,0.2546,0.2551,0.2557,0.2569,0.2579,0.2584,0.2595,0.2598,0.2603,0.2616,0.2638,0.2641,0.2661,0.2679,0.2712,0.2697,0.2701,0.2704,0.2718,0.278,0.2791,0.2674,0.2674,0.2674,0,0,0.2535,0.2539,0.2539,0.2552,0.2562,0.2576,0.2573,0.259,0.2604,0.2598,0.2617,0.2632,0.2649,0.2676,0.2687,0.2674,0.2758,0.2708,0.2711,0.2723,0.2785,0.2796,0.2806,0.2677,0.2676,0.2676,0,0,0.254,0.2541,0.2544,0.2557,0.2575,0.2586,0.2591,0.2606,0.2615,0.2635,0.2644,0.2669,0.2687,0.2709,0.2721,0.2762,0.2783,0.2769,0.279,0.285,0.286,0.2869,0.2933,0.2948,0.2764,0.2764,0.2764,0,0.2542,0.2546,0.2551,0.2562,0.2577,0.2589,0.2605,0.2618,0.2638,0.2656,0.2642,0.2703,0.2707,0.2758,0.277,0.2771,0.2812,0.2762,0.2854,0.2864,0.2873,0.2937,0.2953,0.2765,0.2764,0.2764,0.2764,0,0.255,0.2557,0.2563,0.2577,0.2596,0.2613,0.2633,0.2654,0.2663,0.2679,0.2729,0.2744,0.2781,0.2788,0.2785,0.2858,0.287,0.2856,0.2837,0.2885,0.295,0.2966,0.2766,0.2765,0.2765,0.2765,0,0,0.2543,0.2563,0.2565,0.2576,0.2607,0.2622,0.2656,0.2694,0.2726,0.2742,0.2796,0.282,0.2834,0.2851,0.2862,0.2905,0.2997,0.2906,0.2909,0.2963,0.3146,0.3133,0.315,0.2999,0.3002,0.3004,0.3167,0,0.2549,0.2571,0.2581,0.2607,0.2624,0.2651,0.2684,0.2722,0.2756,0.2811,0.284,0.2893,0.2856,0.2888,0.2923,0.2992,0.3041,0.2955,0.3098,0.3103,0.3079,0.3169,0.3059,0.3193,0.3183,0.3186,0.3188,0,0.2553,0.257,0.2594,0.2631,0.2641,0.2657,0.2725,0.2758,0.2837,0.2868,0.2921,0.2955,0.3031,0.2993,0.3116,0.3067,0.3109,0.3149,0.3155,0.3153,0.3121,0.3144,0.3224,0.3134,0.3214,0.3212,0.321,0,0.255,0.2578,0.2599,0.2609,0.2653,0.2672,0.2703,0.2775,0.2825,0.2921,0.2981,0.3052,0.312,0.3177,0.3241,0.3195,0.3389,0.3333,0.3363,0.3363,0.3303,0.3293,0.3306,0.3428,0.3427,0.3427,0.3426,0,0.2555,0.2566,0.2594,0.2602,0.2637,0.2671,0.2729,0.2773,0.287,0.2937,0.3009,0.3093,0.3173,0.3279,0.3305,0.3403,0.344,0.3401,0.3415,0.3304,0.3293,0.3236,0.3194,0.3433,0.3432,0.343,0.3429,0,0.2537,0.2559,0.2577,0.2616,0.2632,0.2656,0.2736,0.278,0.2879,0.2981,0.3023,0.3169,0.3303,0.3386,0.3516,0.3501,0.3495,0.3603,0.3473,0.3468,0.3369,0.3332,0.3269,0.3169,0.3661,0.3662,0.3663,0,0.2521,0.2532,0.2575,0.2587,0.2597,0.2645,0.2679,0.2773,0.2824,0.3014,0.3059,0.3248,0.3344,0.3552,0.3598,0.3684,0.3545,0.3613,0.349,0.3382,0.3352,0.3191,0.3098,0.3424,0.3423,0.3422,0.3421,0,0.2485,0.2503,0.2519,0.2554,0.2577,0.2616,0.2669,0.2717,0.2831,0.2936,0.3078,0.3188,0.3405,0.3466,0.3601,0.3622,0.3434,0.3592,0.3515,0.321,0.3004,0.2907,0.3304,0.3411,0.3412,0.3413,0.3413,0.3414,0.244,0.245,0.2475,0.2498,0.2529,0.255,0.2554,0.2632,0.2718,0.2833,0.3005,0.3122,0.3295,0.3477,0.3479,0.3432,0.3392,0.333,0.3314,0.3175,0.3007,0.3392,0.3483,0.3484,0.3485,0.3486,0.3487,0,0.236,0.2387,0.2414,0.2426,0.242,0.2469,0.251,0.2497,0.2546,0.2715,0.2835,0.3011,0.3095,0.3191,0.3263,0.3175,0.2988,0.3087,0.2826,0.2762,0.3153,0.3069,0.3032,0.3032,0.3032,0.3032,0.3032,0.3032,0.2314,0.2314,0.2336,0.2299,0.2309,0.2259,0.2256,0.2273,0.235,0.2459,0.2563,0.2713,0.2946,0.3085,0.3028,0.2954,0.2708,0.2609,0.2579,0.2856,0.2875,0.2894,0.2804,0.2711,0.2711,0.205,0.2045,0.2041]},{"header":{"parameterUnit":"m.s-1","parameterCategory":2,"la1":30.2991,"la2":30.254,"lo1":-89.0895,"lo2":-89.0444,"dy":0.0017,"dx":0.0017,"nx":28,"ny":28,"refTime":"2024-03-11T03:00:00:Z","depth":"0","parameterNumber":3,"parameterNumberName":"V-component_of_CURRENTS"},"data":[0,0,0,0,0,0,0,0,0,0,0,0,0,0,0,0,0,0,0,0,0,0,0,0,0,0,0,0,0,0,0,0,0,0,0,0,0,0,0,0,0,0,0,0,0,0,0,0,0,0,0,0,0,0,0,0,0,0,0.0206,0.0205,0,0.0149,0.0148,0.0148,0.0116,0.0116,0.0115,0.0115,0.0012,0.0009,0.0007,0,0,0,0,0,0,0,0,0,0,0,0,0,0.0254,0.0254,0.0206,0.0205,0.0204,0.0149,0.0148,0.0147,0.0116,0.0116,0.0115,0.0115,0.0013,0.001,0.0007,0,0,0,0,0,0,0,0,0,0,0,0,0,0.0221,0.0254,0.0206,0.018,0.0177,0.0149,0.0148,0.0147,0.0116,0.0116,0.0115,0.0115,0.0014,0.001,0.0006,-0.0008,0,0,-0.0005,-0.0007,0,0,0,0,0,0,0,0,0.0223,0.022,0.0185,0.0182,0.0178,0.0137,0.0127,0.0092,0.0116,0.0142,0.0115,0.0115,0.0048,0.0042,0.0036,-0.0013,-0.0017,-0.0005,-0.0008,-0.0009,-0.001,0,0,0,0,0,0,0,0.0225,0.0222,0.0185,0.0184,0.018,0.0159,0.0155,0.0121,0.0099,0.0139,0.0136,0.0127,0.0046,0.004,0.0033,-0.0019,-0.0005,-0.0009,-0.0011,-0.0012,-0.0081,-0.0081,0,0,0,0,0,0,0.023,0.0224,0.0187,0.0183,0.0197,0.0159,0.0154,0.0152,0.01,0.0092,0.0127,0.0125,0.0046,0.0037,0.0029,0.0019,-0.0009,-0.0013,-0.0015,-0.0081,-0.0081,-0.008,0,0,0,0,0,0,0.0232,0.0228,0.0189,0.02,0.0193,0.0159,0.0157,0.0151,0.0145,0.0091,0.0082,0.0126,0.0045,0.0034,0.0008,0.0014,-0.0014,-0.0018,-0.0082,-0.0081,-0.0081,-0.0008,0,0,0,0,0,0,0.0234,0.0229,0.0232,0.0201,0.0193,0.0178,0.0157,0.0151,0.0138,0.0136,0.0087,0.0077,0.0044,0.0014,0.0004,0.0009,-0.0021,-0.0082,-0.0082,-0.0081,-0.0011,-0.0005,0.0,0,0,0,0,0,0.0236,0.0242,0.0233,0.0228,0.0198,0.0178,0.0173,0.0148,0.0139,0.014,0.0111,0.0079,0.0011,0.0011,-0.0,0.0003,-0.0083,-0.0082,-0.0081,-0.0013,-0.0006,0.0,0,0,0,0,0,0,0.0261,0.0238,0.0228,0.0226,0.0205,0.0172,0.017,0.0153,0.0132,0.013,0.0083,0.0072,0.0051,0.0018,0.0019,-0.0014,-0.0041,-0.0043,0.0014,0.002,0.0026,0.0044,-0.0024,0,0,0,0,0,0.0269,0.0271,0.0241,0.024,0.0233,0.0204,0.0193,0.0177,0.0151,0.0142,0.0109,0.0074,0.0046,0.0027,-0.0004,-0.0023,-0.0044,-0.0029,-0.0023,-0.0018,-0.0011,-0.0032,-0.0027,-0.0077,-0.0078,-0.0078,0,0,0.0274,0.0265,0.0263,0.0246,0.0231,0.0231,0.0198,0.0187,0.0187,0.0133,0.0126,0.0091,0.0046,0.0028,0.0015,0.0001,-0.0013,-0.0017,-0.0012,-0.0008,-0.0031,-0.0026,-0.0021,-0.0077,-0.0077,-0.0077,0,0,0.0295,0.0284,0.0295,0.0286,0.0267,0.025,0.025,0.0221,0.021,0.0195,0.0161,0.0134,0.0087,0.0061,0.004,0.0056,0.0018,0.0043,0.0082,0.0062,0.0066,0.007,0.0061,0.0063,0.0044,0.0044,0.0044,0,0.0304,0.0316,0.0293,0.0304,0.0303,0.0265,0.0278,0.0261,0.0228,0.0226,0.0201,0.0149,0.0104,0.0091,0.0093,0.0068,0.0056,0.0063,0.0071,0.0074,0.0076,0.0066,0.0067,0.0048,0.0047,0.0047,0.0047,0,0.0333,0.0345,0.0351,0.0357,0.0352,0.0356,0.0332,0.0329,0.0308,0.0288,0.0269,0.0213,0.0184,0.0162,0.0128,0.0124,0.0111,0.0083,0.0058,0.0086,0.0073,0.0073,0.0053,0.0052,0.005,0.005,0,0,0.0353,0.0369,0.0373,0.0395,0.0383,0.0387,0.0393,0.0389,0.0407,0.0359,0.0378,0.0309,0.0278,0.0253,0.0207,0.0181,0.0179,0.0142,0.014,0.0142,0.0149,0.013,0.0128,0.0155,0.0156,0.0156,0.0138,0,0.0386,0.0427,0.0421,0.0462,0.0484,0.0464,0.0478,0.047,0.0454,0.0462,0.0401,0.0395,0.0313,0.0309,0.0266,0.021,0.0181,0.0187,0.0114,0.0113,0.0099,0.0128,0.0119,0.0102,0.0138,0.0138,0.0138,0,0.0421,0.0449,0.0493,0.0536,0.0544,0.0558,0.0589,0.0599,0.0592,0.0582,0.0554,0.051,0.0468,0.0398,0.0301,0.0312,0.0234,0.018,0.0177,0.0134,0.0094,0.0076,0.01,-0.0081,0.0138,0.0138,0.0138,0,0.0463,0.0505,0.0547,0.0558,0.0589,0.0611,0.0631,0.0635,0.0674,0.0668,0.0701,0.0619,0.0615,0.0498,0.0368,0.0341,0.0272,0.0219,0.0128,0.0126,0.0091,0.0085,-0.0064,0.0149,0.0149,0.0149,0.0149,0,0.0507,0.0547,0.0573,0.0598,0.0667,0.0667,0.074,0.0745,0.0785,0.0857,0.0771,0.0816,0.0641,0.0576,0.0425,0.0289,0.0311,0.0146,0.0122,0.0116,0.0114,-0.0069,-0.0158,0.0149,0.0149,0.0149,0.0149,0,0.055,0.0562,0.0624,0.0666,0.0689,0.0741,0.0832,0.0892,0.0912,0.101,0.1023,0.0983,0.0895,0.0713,0.0546,0.039,0.0149,0.0187,0.0198,0.0175,-0.0097,-0.018,-0.033,-0.0393,0.0082,0.0081,0.0081,0,0.0578,0.0609,0.0678,0.0729,0.0753,0.0835,0.0904,0.0951,0.1031,0.1124,0.1187,0.114,0.1133,0.0877,0.058,0.0322,0.015,0.0141,0.007,-0.0105,-0.0216,-0.0277,-0.0324,0.0056,0.0055,0.0054,0.0054,0,0.0635,0.0652,0.0703,0.0804,0.0881,0.0988,0.109,0.1175,0.1257,0.1349,0.1459,0.1468,0.1223,0.0961,0.0593,0.0398,0.0018,0.0122,-0.0066,-0.0251,-0.032,-0.0393,0.0065,0.0049,0.005,0.005,0.005,0.0051,0.068,0.0727,0.0792,0.0891,0.0991,0.1128,0.1228,0.1354,0.1508,0.1661,0.1657,0.1698,0.1297,0.0794,0.0511,-0.0038,-0.0024,-0.0214,-0.0297,-0.0341,-0.0419,0.0037,-0.0006,-0.0006,-0.0006,-0.0006,-0.0006,0,0.0734,0.0788,0.0882,0.1004,0.1125,0.1168,0.1347,0.146,0.1651,0.1789,0.1885,0.1699,0.1219,0.0709,-0.0019,-0.0393,-0.0519,-0.0598,-0.0707,-0.0733,-0.0339,-0.0359,-0.047,-0.047,-0.047,-0.047,-0.047,-0.047,0.0769,0.0855,0.0901,0.1094,0.1191,0.1359,0.1466,0.1635,0.1762,0.1926,0.1945,0.1931,0.1521,0.0261,-0.0614,-0.0812,-0.1044,-0.1106,-0.1211,-0.098,-0.0952,-0.0924,-0.0967,-0.1204,-0.1205,-0.1568,-0.1572,-0.1575]}],[{"header":{"parameterUnit":"m.s-1","parameterCategory":2,"la1":30.2991,"la2":30.254,"lo1":-89.0895,"lo2":-89.0444,"dy":0.0017,"dx":0.0017,"nx":28,"ny":28,"refTime":"2024-03-11T03:00:00:Z","depth":"2","parameterNumber":2,"parameterNumberName":"U-component_of_CURRENTS"},"data":[0,0,0,0,0,0,0,0,0,0,0,0,0,0,0,0,0,0,0,0,0,0,0,0,0,0,0,0,0,0,0,0,0,0,0,0,0,0,0,0,0,0,0,0,0,0,0,0,0,0,0,0,0,0,0,0,0,0,0.2227,0.2228,0,0.2299,0.2299,0.23,0.2307,0.2307,0.2307,0.2306,0.2327,0.2328,0.2329,0,0,0,0,0,0,0,0,0,0,0,0,0,0.2148,0.2149,0.2226,0.2228,0.2229,0.2299,0.2299,0.23,0.2308,0.2307,0.2307,0.2306,0.2327,0.2328,0.2329,0,0,0,0,0,0,0,0,0,0,0,0,0,0.2194,0.2149,0.2226,0.2244,0.2246,0.2299,0.2299,0.23,0.2308,0.2307,0.2306,0.2306,0.2326,0.2328,0.2329,0.2351,0,0,0.2334,0.2334,0,0,0,0,0,0,0,0,0.2191,0.2196,0.224,0.2243,0.2246,0.2296,0.228,0.2316,0.2308,0.2281,0.2306,0.2306,0.2315,0.2317,0.2328,0.2352,0.2352,0.2334,0.2335,0.2335,0.2336,0,0,0,0,0,0,0,0.2188,0.2194,0.2252,0.2241,0.2245,0.2266,0.2271,0.2287,0.2297,0.2283,0.2285,0.2298,0.2315,0.2327,0.2328,0.2353,0.2334,0.2335,0.2336,0.2336,0.2414,0.2415,0,0,0,0,0,0,0.2184,0.2191,0.2249,0.2254,0.222,0.2268,0.2274,0.2278,0.2298,0.2302,0.2299,0.2298,0.2325,0.2327,0.2329,0.2379,0.2335,0.2336,0.2337,0.2413,0.2414,0.2416,0,0,0,0,0,0,0.2182,0.2188,0.2247,0.2227,0.2237,0.227,0.2275,0.228,0.2302,0.2311,0.2313,0.2318,0.2324,0.2327,0.235,0.2378,0.2337,0.2338,0.2411,0.2413,0.2415,0.2463,0,0,0,0,0,0,0.2179,0.2187,0.2195,0.2227,0.2238,0.2281,0.2276,0.2282,0.2313,0.2313,0.2328,0.2329,0.2324,0.2348,0.2352,0.238,0.2339,0.241,0.2412,0.2414,0.2459,0.2466,0.2471,0,0,0,0,0,0.2176,0.2185,0.2194,0.2202,0.2245,0.2283,0.229,0.231,0.2314,0.2327,0.2337,0.2329,0.2365,0.235,0.2354,0.2383,0.2409,0.2412,0.2414,0.2457,0.2465,0.2471,0,0,0,0,0,0,0.2161,0.2188,0.2199,0.2217,0.2251,0.2285,0.2302,0.2321,0.2341,0.234,0.2344,0.2346,0.2381,0.2375,0.2359,0.2412,0.2386,0.239,0.2417,0.2425,0.2431,0.2421,0.2341,0,0,0,0,0,0.2162,0.2169,0.2208,0.2224,0.224,0.2275,0.2297,0.2312,0.2335,0.2344,0.2358,0.2372,0.2396,0.2403,0.2419,0.2446,0.2454,0.2467,0.2473,0.2478,0.2473,0.2509,0.2518,0.2425,0.2425,0.2425,0,0,0.216,0.2178,0.2182,0.2221,0.2246,0.227,0.2285,0.2318,0.2341,0.2343,0.2374,0.2397,0.241,0.2442,0.2456,0.2438,0.2514,0.2481,0.2485,0.2478,0.2513,0.2522,0.253,0.2426,0.2426,0.2426,0,0,0.2162,0.2177,0.2187,0.2211,0.2254,0.2275,0.2289,0.2332,0.2352,0.2387,0.2403,0.245,0.2464,0.2496,0.2509,0.256,0.255,0.2556,0.2573,0.2609,0.2616,0.2623,0.2667,0.2677,0.2552,0.2552,0.2552,0,0.2164,0.2179,0.2199,0.2218,0.2242,0.2278,0.2303,0.2328,0.2375,0.2403,0.2395,0.2474,0.2496,0.2555,0.2569,0.2577,0.2582,0.2546,0.2616,0.2623,0.2629,0.2672,0.2683,0.2555,0.2554,0.2554,0.2554,0,0.2172,0.2189,0.2199,0.2227,0.2255,0.2283,0.2321,0.2358,0.2387,0.2417,0.2486,0.2524,0.2572,0.2593,0.2591,0.2655,0.2641,0.2626,0.2597,0.2641,0.2684,0.2695,0.2559,0.2558,0.2557,0.2556,0,0,0.2166,0.2199,0.2203,0.2217,0.2265,0.2286,0.2332,0.2391,0.243,0.2474,0.2532,0.2594,0.2624,0.2641,0.2668,0.2693,0.2763,0.2666,0.2667,0.2708,0.2836,0.2785,0.2791,0.2743,0.2745,0.2746,0.2857,0,0.2175,0.22,0.2221,0.225,0.227,0.2316,0.2356,0.241,0.2458,0.2517,0.2578,0.2639,0.2637,0.2677,0.2704,0.2757,0.2787,0.2735,0.2788,0.279,0.2737,0.2801,0.2598,0.2673,0.2867,0.2868,0.2869,0,0.2183,0.2198,0.2225,0.2268,0.2282,0.2307,0.2387,0.2427,0.2515,0.2557,0.2626,0.2668,0.2757,0.2731,0.2833,0.2789,0.2811,0.2835,0.2839,0.2776,0.2757,0.2656,0.2685,0.2887,0.2885,0.2884,0.2883,0,0.2166,0.2204,0.2224,0.2236,0.2287,0.2322,0.2362,0.2445,0.2502,0.2594,0.2655,0.2731,0.2807,0.2835,0.2896,0.2864,0.2979,0.2954,0.2932,0.2929,0.276,0.2739,0.3005,0.3005,0.3005,0.3005,0.3004,0,0.2166,0.2178,0.2216,0.2221,0.2265,0.2306,0.2373,0.2432,0.2529,0.2596,0.2676,0.2752,0.2829,0.2904,0.2919,0.2968,0.3012,0.2949,0.2955,0.2773,0.2754,0.2928,0.2918,0.3009,0.3008,0.3007,0.3006,0,0.2141,0.2162,0.2185,0.2234,0.2256,0.2287,0.2384,0.2429,0.2531,0.2628,0.267,0.2804,0.2902,0.2968,0.3046,0.3024,0.3061,0.3056,0.2845,0.2823,0.2982,0.2973,0.3058,0.3057,0.3056,0.3056,0.3055,0,0.2126,0.2134,0.2187,0.2201,0.2224,0.228,0.2321,0.2423,0.2477,0.2651,0.2692,0.284,0.2909,0.3024,0.3022,0.3057,0.3079,0.2865,0.277,0.299,0.2988,0.298,0.2972,0.2581,0.2577,0.2573,0.2571,0,0.2096,0.212,0.2137,0.2172,0.2207,0.2251,0.2317,0.2365,0.2482,0.257,0.2684,0.2761,0.2893,0.2839,0.2889,0.287,0.2841,0.2794,0.3089,0.2592,0.2547,0.2543,0.255,0.2539,0.2542,0.2544,0.2546,0.2547,0.2068,0.2082,0.2106,0.2131,0.2174,0.2202,0.2198,0.2273,0.2344,0.2425,0.2564,0.2601,0.2658,0.2639,0.2576,0.254,0.2728,0.2596,0.2605,0.2617,0.2535,0.249,0.2457,0.246,0.2462,0.2464,0.2466,0,0.2,0.2035,0.2059,0.2075,0.2072,0.2128,0.217,0.2132,0.2154,0.2278,0.234,0.22,0.2199,0.2254,0.217,0.2182,0.2132,0.208,0.1992,0.2028,0.2059,0.1943,0.1711,0.1708,0.1705,0.1703,0,0,0.1967,0.1952,0.1964,0.1948,0.1967,0.193,0.1922,0.1893,0.1941,0.1929,0.1946,0.2111,0.2222,0.1932,0.1911,0.1798,0.1889,0.1732,0.2352,0.2288,0.2315,0.2389,0.2258,0,0,0,0,0]},{"header":{"parameterUnit":"m.s-1","parameterCategory":2,"la1":30.2991,"la2":30.254,"lo1":-89.0895,"lo2":-89.0444,"dy":0.0017,"dx":0.0017,"nx":28,"ny":28,"refTime":"2024-03-11T03:00:00:Z","depth":"2","parameterNumber":3,"parameterNumberName":"V-component_of_CURRENTS"},"data":[0,0,0,0,0,0,0,0,0,0,0,0,0,0,0,0,0,0,0,0,0,0,0,0,0,0,0,0,0,0,0,0,0,0,0,0,0,0,0,0,0,0,0,0,0,0,0,0,0,0,0,0,0,0,0,0,0,0,0.006,0.0059,0,-0.0002,-0.0003,-0.0004,-0.0037,-0.0037,-0.0037,-0.0037,-0.0159,-0.0162,-0.0165,0,0,0,0,0,0,0,0,0,0,0,0,0,0.0093,0.0093,0.006,0.0059,0.0058,-0.0002,-0.0003,-0.0004,-0.0037,-0.0037,-0.0037,-0.0038,-0.0158,-0.0162,-0.0166,0,0,0,0,0,0,0,0,0,0,0,0,0,0.006,0.0093,0.006,0.0034,0.0031,-0.0002,-0.0003,-0.0004,-0.0037,-0.0037,-0.0037,-0.0038,-0.0157,-0.0161,-0.0166,-0.0192,0,0,-0.0181,-0.0183,0,0,0,0,0,0,0,0,0.0062,0.0059,0.0039,0.0036,0.0032,-0.0013,-0.0036,-0.007,-0.0037,-0.0011,-0.0037,-0.0038,-0.0116,-0.0124,-0.0134,-0.0198,-0.0203,-0.0181,-0.0184,-0.0186,-0.0187,0,0,0,0,0,0,0,0.0065,0.0061,0.0035,0.0038,0.0034,0.0006,0.0002,-0.0043,-0.0063,-0.0013,-0.0016,-0.0023,-0.0118,-0.0129,-0.0137,-0.0205,-0.0181,-0.0185,-0.0188,-0.019,-0.0285,-0.0284,0,0,0,0,0,0,0.0075,0.0064,0.0037,0.0034,0.0047,0.0006,0.0001,0.0002,-0.0061,-0.007,-0.0023,-0.0025,-0.0121,-0.0132,-0.0142,-0.0156,-0.0186,-0.019,-0.0193,-0.0285,-0.0285,-0.0284,0,0,0,0,0,0,0.0076,0.0073,0.004,0.0046,0.004,0.0006,0.0007,0.0001,-0.0007,-0.0068,-0.0078,-0.0024,-0.0122,-0.0135,-0.0167,-0.0162,-0.0192,-0.0197,-0.0285,-0.0285,-0.0284,-0.0199,0,0,0,0,0,0,0.0077,0.0074,0.0078,0.0047,0.004,0.0029,0.0007,0.0,-0.0011,-0.0014,-0.0072,-0.0084,-0.0123,-0.0159,-0.0172,-0.0169,-0.02,-0.0286,-0.0285,-0.0285,-0.0202,-0.0195,-0.019,0,0,0,0,0,0.0079,0.0086,0.0079,0.0075,0.0047,0.0029,0.0023,-0.0002,-0.0011,-0.001,-0.0044,-0.0082,-0.0165,-0.0163,-0.0177,-0.0176,-0.0286,-0.0285,-0.0285,-0.0205,-0.0197,-0.019,0,0,0,0,0,0,0.0098,0.0082,0.0074,0.0075,0.0057,0.0024,0.002,0.0004,-0.0022,-0.0025,-0.0078,-0.0092,-0.0118,-0.0159,-0.0155,-0.0202,-0.0232,-0.0234,-0.0167,-0.016,-0.0154,-0.0137,-0.0204,0,0,0,0,0,0.0106,0.0111,0.0087,0.0088,0.0082,0.0054,0.0043,0.0027,-0.0,-0.0011,-0.0049,-0.0092,-0.0128,-0.0151,-0.019,-0.0217,-0.0248,-0.0226,-0.022,-0.0215,-0.0211,-0.0244,-0.0241,-0.0282,-0.0282,-0.0282,0,0,0.011,0.0105,0.0104,0.0093,0.0077,0.0077,0.0047,0.0037,0.0038,-0.0022,-0.0033,-0.0073,-0.013,-0.0154,-0.017,-0.0186,-0.0218,-0.0214,-0.0209,-0.0208,-0.0243,-0.0239,-0.0236,-0.0282,-0.0282,-0.0282,0,0,0.0127,0.0122,0.0132,0.0125,0.011,0.0095,0.0097,0.007,0.006,0.0042,0.0003,-0.0025,-0.0086,-0.0116,-0.0142,-0.0129,-0.0183,-0.0149,-0.0108,-0.014,-0.0136,-0.0134,-0.0157,-0.0157,-0.0148,-0.0147,-0.0147,0,0.0133,0.0147,0.013,0.0141,0.014,0.0109,0.0121,0.0106,0.0073,0.0068,0.0049,-0.002,-0.0066,-0.0091,-0.0085,-0.0114,-0.0141,-0.0128,-0.013,-0.0129,-0.0128,-0.0152,-0.0154,-0.0143,-0.0144,-0.0144,-0.0145,0,0.0157,0.017,0.0176,0.0185,0.0182,0.0186,0.0168,0.0166,0.0149,0.0128,0.0103,0.0048,0.0009,-0.0013,-0.0047,-0.0062,-0.0086,-0.0115,-0.0144,-0.0118,-0.0146,-0.0149,-0.0137,-0.0139,-0.014,-0.0141,0,0,0.0169,0.019,0.0193,0.0211,0.0208,0.0211,0.0219,0.0216,0.0227,0.0187,0.0192,0.013,0.0101,0.007,0.0022,-0.0009,-0.0021,-0.0055,-0.0059,-0.0068,-0.0088,-0.0116,-0.0122,-0.0053,-0.0053,-0.0053,-0.0107,0,0.0194,0.0231,0.0231,0.0266,0.0285,0.0274,0.0289,0.0282,0.0265,0.0263,0.0207,0.0189,0.0131,0.0119,0.0078,0.0004,-0.0027,-0.0004,-0.0121,-0.0124,-0.0144,-0.0126,-0.0094,-0.014,-0.011,-0.011,-0.0111,0,0.022,0.0246,0.0285,0.0324,0.0331,0.0345,0.037,0.038,0.0367,0.0355,0.0325,0.0278,0.0234,0.0181,0.0072,0.0088,0.0009,-0.0053,-0.0057,-0.0116,-0.0157,-0.0166,-0.0148,-0.0116,-0.0116,-0.0115,-0.0115,0,0.0246,0.0286,0.0323,0.0334,0.0366,0.0386,0.0404,0.0407,0.0435,0.0418,0.0434,0.0356,0.0337,0.0225,0.0096,0.0084,-0.0028,-0.0061,-0.0159,-0.0162,-0.0175,-0.0178,-0.0138,-0.0138,-0.0138,-0.0137,-0.0137,0,0.0277,0.0309,0.034,0.0362,0.0419,0.0426,0.0482,0.0489,0.0513,0.0559,0.0487,0.0501,0.0347,0.0262,0.0127,-0.002,-0.0005,-0.0147,-0.0178,-0.0144,-0.0144,-0.016,-0.0162,-0.0139,-0.0139,-0.0139,-0.0138,0,0.0301,0.0319,0.0369,0.0412,0.0434,0.0476,0.0551,0.0594,0.0608,0.0669,0.0674,0.0616,0.0509,0.0343,0.0166,0.0036,-0.0114,-0.0173,-0.012,-0.0143,-0.0232,-0.0229,-0.028,-0.0282,-0.0283,-0.0284,-0.0285,0,0.032,0.0345,0.0408,0.045,0.0473,0.0541,0.0598,0.0639,0.0696,0.0743,0.078,0.0703,0.0658,0.0388,0.0143,-0.0092,-0.0123,-0.0219,-0.0242,-0.0222,-0.0247,-0.0242,-0.0238,-0.022,-0.022,-0.0221,-0.0221,0,0.0358,0.0372,0.0414,0.0498,0.0563,0.0648,0.0732,0.0794,0.0856,0.0907,0.0954,0.0922,0.0679,0.0445,0.0118,-0.004,-0.0182,-0.0232,-0.0223,-0.0192,-0.0171,-0.0194,-0.019,-0.0223,-0.0222,-0.0222,-0.0222,-0.0222,0.0388,0.0421,0.0475,0.0557,0.0641,0.075,0.0821,0.0914,0.1018,0.11,0.1069,0.1036,0.0772,0.0361,0.0078,-0.0207,-0.0198,-0.0293,-0.029,-0.0287,-0.0273,-0.0256,-0.032,-0.0321,-0.0321,-0.0321,-0.0321,0,0.0427,0.0467,0.0537,0.0638,0.0731,0.0774,0.0912,0.0982,0.1104,0.1177,0.1206,0.0974,0.0711,0.0415,-0.001,-0.0274,-0.0284,-0.0348,-0.0299,-0.0295,-0.0292,-0.0278,-0.0327,-0.0328,-0.0329,-0.0329,0,0,0.0454,0.0511,0.0542,0.0695,0.0775,0.0911,0.0989,0.109,0.117,0.1233,0.1232,0.1171,0.0818,0.0511,0.0154,-0.0084,-0.0128,-0.0129,-0.0095,0.0009,0.0015,-0.0231,-0.02,0,0,0,0,0]}],[{"header":{"parameterUnit":"m.s-1","parameterCategory":2,"la1":30.2991,"la2":30.254,"lo1":-89.0895,"lo2":-89.0444,"dy":0.0017,"dx":0.0017,"nx":28,"ny":28,"refTime":"2024-03-11T03:00:00:Z","depth":"4","parameterNumber":2,"parameterNumberName":"U-component_of_CURRENTS"},"data":[0,0,0,0,0,0,0,0,0,0,0,0,0,0,0,0,0,0,0,0,0,0,0,0,0,0,0,0,0,0,0,0,0,0,0,0,0,0,0,0,0,0,0,0,0,0,0,0,0,0,0,0,0,0,0,0,0,0,0.1283,0.1283,0,0.1268,0.1268,0.1267,0.1302,0.1304,0.1305,0.1307,0.1355,0.1355,0.1355,0,0,0,0,0,0,0,0,0,0,0,0,0,0.1253,0.1254,0.1283,0.1283,0.1283,0.1268,0.1268,0.1267,0.1302,0.1304,0.1306,0.1307,0.1355,0.1355,0.1355,0,0,0,0,0,0,0,0,0,0,0,0,0,0.1252,0.1254,0.1283,0.1301,0.1303,0.1268,0.1268,0.1267,0.1302,0.1304,0.1306,0.1308,0.1355,0.1355,0.1355,0.1313,0,0,0.1355,0.1355,0,0,0,0,0,0,0,0,0.1252,0.1253,0.1299,0.13,0.1302,0.1292,0.1275,0.1286,0.1301,0.1299,0.1307,0.1309,0.134,0.1342,0.1329,0.1315,0.1317,0.1355,0.1355,0.1355,0.1355,0,0,0,0,0,0,0,0.1252,0.1253,0.1274,0.1299,0.1301,0.128,0.1282,0.1276,0.1307,0.1299,0.1303,0.1305,0.1342,0.1329,0.1331,0.1318,0.1355,0.1355,0.1355,0.1355,0.1405,0.1407,0,0,0,0,0,0,0.1263,0.1254,0.1275,0.1274,0.1285,0.1279,0.1282,0.1291,0.1306,0.131,0.1303,0.1307,0.1328,0.133,0.1333,0.1399,0.1355,0.1355,0.1355,0.1404,0.1406,0.1407,0,0,0,0,0,0,0.1262,0.1265,0.1275,0.1265,0.1266,0.1278,0.1287,0.1289,0.1305,0.1309,0.1314,0.1321,0.1329,0.1333,0.138,0.1397,0.1355,0.1355,0.1402,0.1404,0.1406,0.1458,0,0,0,0,0,0,0.1261,0.1265,0.128,0.1266,0.1267,0.1279,0.1285,0.1287,0.1303,0.1308,0.1325,0.133,0.1331,0.138,0.138,0.1396,0.1355,0.1401,0.1403,0.1406,0.1454,0.1461,0.1467,0,0,0,0,0,0.126,0.1272,0.1281,0.1284,0.1286,0.1279,0.1278,0.129,0.1302,0.1312,0.1345,0.1331,0.1395,0.1381,0.1381,0.1397,0.1399,0.1403,0.1406,0.1451,0.146,0.1467,0,0,0,0,0,0,0.1265,0.1276,0.1286,0.1301,0.1303,0.1288,0.13,0.13,0.1326,0.1347,0.1349,0.1357,0.1402,0.1394,0.1378,0.1421,0.1393,0.1396,0.1428,0.1436,0.1443,0.146,0.1355,0,0,0,0,0,0.1272,0.1291,0.129,0.1306,0.1311,0.1307,0.1309,0.1317,0.1333,0.1346,0.137,0.1393,0.1403,0.142,0.1432,0.1452,0.1461,0.1463,0.147,0.1475,0.149,0.1525,0.1536,0.1417,0.1417,0.1417,0,0,0.1277,0.1289,0.1298,0.1309,0.1314,0.1323,0.1314,0.1329,0.1348,0.1347,0.1406,0.1418,0.1415,0.145,0.1468,0.1453,0.1515,0.1479,0.1484,0.1496,0.1529,0.1541,0.1551,0.1419,0.1419,0.1418,0,0,0.1289,0.131,0.1327,0.1333,0.135,0.1349,0.1359,0.1371,0.1395,0.1436,0.1444,0.148,0.1502,0.1511,0.151,0.1556,0.1547,0.1554,0.16,0.1634,0.1644,0.1653,0.1682,0.1693,0.1557,0.1557,0.1557,0,0.1297,0.1318,0.1329,0.1345,0.1358,0.1366,0.1382,0.1395,0.1429,0.1455,0.1474,0.1526,0.1529,0.1553,0.1579,0.157,0.159,0.1568,0.1642,0.1652,0.166,0.1687,0.1699,0.156,0.156,0.1559,0.1559,0,0.1309,0.1337,0.1349,0.1379,0.1393,0.141,0.143,0.1468,0.1504,0.1518,0.1579,0.1597,0.1632,0.1628,0.1621,0.1672,0.1668,0.1646,0.1622,0.1675,0.17,0.1712,0.1564,0.1563,0.1562,0.1561,0,0,0.1294,0.1348,0.1355,0.1379,0.1416,0.1425,0.1476,0.151,0.1551,0.16,0.1655,0.1682,0.1707,0.171,0.1705,0.1733,0.1807,0.1725,0.1726,0.1753,0.1892,0.1785,0.1787,0.1804,0.1806,0.1808,0.1887,0,0.1302,0.1345,0.137,0.1413,0.1434,0.1471,0.1512,0.1552,0.1603,0.1665,0.1689,0.1742,0.1729,0.1762,0.1791,0.1806,0.184,0.1789,0.1838,0.1839,0.1737,0.1797,0.1815,0.1895,0.1898,0.1899,0.1901,0,0.1296,0.1332,0.1378,0.144,0.1454,0.1487,0.1565,0.1603,0.1678,0.1723,0.1786,0.1814,0.1875,0.1855,0.1926,0.19,0.1912,0.1915,0.1918,0.1809,0.1753,0.1831,0.1921,0.1919,0.1918,0.1916,0.1915,0,0.1267,0.1332,0.1376,0.1394,0.1463,0.1507,0.1554,0.163,0.1679,0.1777,0.1834,0.1897,0.1955,0.1984,0.2013,0.1985,0.2083,0.2035,0.1948,0.194,0.1989,0.1978,0.2088,0.2088,0.2088,0.2088,0.2088,0,0.1247,0.1281,0.1374,0.1391,0.1452,0.1509,0.1582,0.1641,0.1737,0.1792,0.1872,0.1929,0.1997,0.2055,0.2055,0.2047,0.2124,0.1974,0.1959,0.2008,0.1999,0.1997,0.1985,0.2091,0.209,0.209,0.2089,0,0.1194,0.1255,0.1305,0.14,0.1436,0.1482,0.1596,0.1641,0.1749,0.1833,0.1876,0.199,0.2062,0.2109,0.2164,0.2098,0.2097,0.2072,0.2146,0.213,0.192,0.191,0.1975,0.1971,0.1969,0.1967,0.1965,0,0.1167,0.1191,0.13,0.1338,0.1386,0.1469,0.1516,0.1633,0.1686,0.1847,0.1876,0.2003,0.2057,0.2057,0.211,0.2114,0.2079,0.2066,0.1967,0.1932,0.1911,0.1906,0.1899,0.1961,0.196,0.196,0.1959,0,0.1111,0.1162,0.1202,0.128,0.1344,0.1403,0.1492,0.1523,0.165,0.1773,0.1837,0.1878,0.1956,0.1988,0.2019,0.2008,0.2064,0.2039,0.2042,0.1949,0.1917,0.1897,0.1894,0.195,0.1952,0.1952,0.1953,0,0.1069,0.1083,0.1145,0.1202,0.1277,0.131,0.1369,0.1435,0.1502,0.1681,0.1702,0.1825,0.1941,0.1936,0.196,0.1953,0.1903,0.1818,0.1832,0.1842,0.176,0.1697,0.1666,0,0,0,0,0,0.1019,0.1022,0.1064,0.1112,0.1181,0.1229,0.1333,0.1394,0.1527,0.1532,0.1614,0.1676,0.1724,0.1791,0.1753,0.1888,0.1903,0.1834,0.181,0.1901,0.1912,0.1825,0,0,0,0,0,0,0.0988,0.1015,0.1025,0.1023,0.1043,0.1105,0.1167,0.1261,0.1274,0.1421,0.1459,0.1575,0.1647,0.1729,0.1722,0.174,0.169,0.1918,0.1913,0.1896,0.1905,0.1913,0.1827,0,0,0,0,0]},{"header":{"parameterUnit":"m.s-1","parameterCategory":2,"la1":30.2991,"la2":30.254,"lo1":-89.0895,"lo2":-89.0444,"dy":0.0017,"dx":0.0017,"nx":28,"ny":28,"refTime":"2024-03-11T03:00:00:Z","depth":"4","parameterNumber":3,"parameterNumberName":"V-component_of_CURRENTS"},"data":[0,0,0,0,0,0,0,0,0,0,0,0,0,0,0,0,0,0,0,0,0,0,0,0,0,0,0,0,0,0,0,0,0,0,0,0,0,0,0,0,0,0,0,0,0,0,0,0,0,0,0,0,0,0,0,0,0,0,0.0069,0.0069,0,0.0039,0.0039,0.0038,0.0019,0.0018,0.0018,0.0018,-0.0082,-0.0085,-0.0087,0,0,0,0,0,0,0,0,0,0,0,0,0,0.0085,0.0085,0.0069,0.0069,0.0068,0.0039,0.0039,0.0038,0.0019,0.0018,0.0018,0.0018,-0.0082,-0.0084,-0.0087,0,0,0,0,0,0,0,0,0,0,0,0,0,0.007,0.0085,0.0069,0.0054,0.0053,0.0039,0.0039,0.0038,0.0019,0.0018,0.0018,0.0018,-0.0081,-0.0084,-0.0088,-0.0104,0,0,-0.0099,-0.0101,0,0,0,0,0,0,0,0,0.0071,0.007,0.0057,0.0055,0.0053,0.0031,0.0007,-0.0013,0.0019,0.0033,0.0018,0.0018,-0.0051,-0.0057,-0.006,-0.0109,-0.0113,-0.01,-0.0102,-0.0103,-0.0104,0,0,0,0,0,0,0,0.0072,0.0071,0.0058,0.0056,0.0054,0.004,0.0038,0.0004,-0.0008,0.0031,0.003,0.0025,-0.0053,-0.0056,-0.0063,-0.0115,-0.0099,-0.0103,-0.0105,-0.0106,-0.019,-0.019,0,0,0,0,0,0,0.0075,0.0072,0.0059,0.0057,0.006,0.004,0.0038,0.004,-0.0006,-0.0013,0.0025,0.0024,-0.005,-0.0058,-0.0066,-0.0085,-0.0103,-0.0107,-0.0109,-0.019,-0.019,-0.019,0,0,0,0,0,0,0.0076,0.0075,0.006,0.0063,0.006,0.004,0.0042,0.0039,0.0037,-0.001,-0.0018,0.0027,-0.005,-0.0061,-0.0094,-0.009,-0.0108,-0.0112,-0.019,-0.019,-0.019,-0.0126,0,0,0,0,0,0,0.0077,0.0076,0.008,0.0063,0.006,0.0057,0.0042,0.0039,0.0034,0.0032,-0.0012,-0.0021,-0.0051,-0.0088,-0.0097,-0.0095,-0.0115,-0.019,-0.019,-0.019,-0.0128,-0.0124,-0.012,0,0,0,0,0,0.0078,0.0085,0.008,0.0079,0.0066,0.0057,0.0055,0.004,0.0035,0.0037,0.0006,-0.002,-0.0095,-0.0091,-0.0102,-0.0101,-0.019,-0.019,-0.019,-0.013,-0.0124,-0.012,0,0,0,0,0,0,0.0091,0.0083,0.0078,0.0081,0.0072,0.0054,0.0054,0.0045,0.0025,0.0022,-0.0021,-0.0032,-0.0059,-0.009,-0.0085,-0.0126,-0.0147,-0.0149,-0.0097,-0.0093,-0.0089,-0.0075,-0.0118,0,0,0,0,0,0.0097,0.0102,0.0089,0.0091,0.0089,0.0073,0.0069,0.0061,0.004,0.0032,0.0001,-0.0036,-0.0067,-0.0087,-0.012,-0.0144,-0.0174,-0.0151,-0.0147,-0.0143,-0.014,-0.0178,-0.0176,-0.019,-0.019,-0.019,0,0,0.01,0.0098,0.0099,0.0095,0.0087,0.0089,0.007,0.0068,0.0069,0.0021,0.0011,-0.0023,-0.007,-0.0093,-0.0108,-0.0119,-0.0155,-0.0143,-0.0139,-0.0139,-0.0177,-0.0176,-0.0175,-0.019,-0.019,-0.019,0,0,0.0111,0.0111,0.0119,0.0117,0.0111,0.0103,0.0105,0.009,0.0083,0.0068,0.0035,0.0006,-0.0041,-0.0071,-0.0094,-0.009,-0.0131,-0.0101,-0.0073,-0.0108,-0.0107,-0.0107,-0.0141,-0.0144,-0.0101,-0.01,-0.01,0,0.0115,0.0127,0.0119,0.0128,0.0129,0.0112,0.0122,0.0114,0.0091,0.0084,0.0071,0.0008,-0.0031,-0.0061,-0.0058,-0.0081,-0.0106,-0.0084,-0.0102,-0.0102,-0.0103,-0.0138,-0.0142,-0.0097,-0.0098,-0.0098,-0.0098,0,0.0132,0.0143,0.0149,0.0157,0.0158,0.0164,0.0154,0.0153,0.0142,0.0128,0.01,0.0051,0.0014,-0.0003,-0.003,-0.0052,-0.007,-0.0089,-0.0109,-0.0097,-0.0135,-0.0141,-0.0093,-0.0094,-0.0095,-0.0096,0,0,0.0135,0.0156,0.0159,0.0174,0.0177,0.0181,0.0187,0.0184,0.0188,0.016,0.0154,0.0102,0.0077,0.005,0.0011,-0.0021,-0.0046,-0.005,-0.0053,-0.0075,-0.0123,-0.012,-0.0127,-0.0065,-0.0066,-0.0066,-0.0147,0,0.015,0.0179,0.0183,0.0211,0.0226,0.0222,0.0232,0.0227,0.0213,0.0204,0.0156,0.0133,0.0097,0.0081,0.0045,-0.0025,-0.0058,-0.0023,-0.014,-0.0143,-0.0135,-0.0132,-0.0068,-0.0151,-0.0152,-0.0153,-0.0154,0,0.0164,0.0185,0.0216,0.0249,0.0255,0.0269,0.0284,0.0291,0.0272,0.0261,0.023,0.0191,0.0141,0.011,0.0003,0.0029,-0.0039,-0.0094,-0.0099,-0.0122,-0.015,-0.0169,-0.0165,-0.0164,-0.0163,-0.0162,-0.0162,0,0.0175,0.0209,0.0239,0.0249,0.0278,0.0294,0.0309,0.0307,0.0321,0.0297,0.0297,0.0229,0.0199,0.0108,0.0,0.0,-0.0119,-0.0138,-0.0202,-0.0203,-0.0209,-0.0209,-0.0213,-0.0213,-0.0213,-0.0213,-0.0213,0,0.0191,0.0215,0.0249,0.0266,0.0307,0.0319,0.0355,0.0358,0.0367,0.0386,0.033,0.0319,0.0199,0.0117,0.0013,-0.0107,-0.0113,-0.0196,-0.0222,-0.0181,-0.0176,-0.0213,-0.0212,-0.0216,-0.0215,-0.0215,-0.0214,0,0.0196,0.0217,0.0256,0.0296,0.0315,0.0344,0.0399,0.0423,0.0427,0.0448,0.0446,0.0384,0.028,0.0151,-0.0002,-0.0083,-0.0205,-0.0249,-0.0191,-0.0213,-0.027,-0.0264,-0.0327,-0.0328,-0.0328,-0.0328,-0.0329,0,0.0202,0.0222,0.0278,0.0308,0.0329,0.0379,0.0419,0.045,0.048,0.0486,0.0498,0.0415,0.0355,0.015,0.0004,-0.0194,-0.0223,-0.0287,-0.0281,-0.0261,-0.0281,-0.0275,-0.0269,-0.0329,-0.033,-0.033,-0.033,0,0.0212,0.023,0.0261,0.0325,0.0374,0.0433,0.0491,0.0519,0.0556,0.0559,0.0547,0.0446,0.0328,0.0163,0.0009,-0.0135,-0.0245,-0.0292,-0.0292,-0.0287,-0.0265,-0.0283,-0.0277,-0.0331,-0.0331,-0.0331,-0.0331,0,0.0221,0.024,0.0285,0.0341,0.0405,0.047,0.05,0.0546,0.0581,0.0594,0.0586,0.0465,0.0398,0.0192,0.0049,-0.009,-0.0129,-0.0174,-0.0181,-0.0181,-0.0116,-0.0065,-0.009,0,0,0,0,0,0.0231,0.0253,0.0301,0.0366,0.0429,0.0473,0.0544,0.0571,0.0606,0.0609,0.0606,0.0501,0.0304,0.0216,0.0079,0.0015,-0.0172,-0.0153,-0.0232,-0.034,-0.0338,-0.0286,0,0,0,0,0,0,0.024,0.0276,0.0297,0.0379,0.0427,0.0506,0.0554,0.0579,0.0586,0.0598,0.0499,0.0464,0.0268,0.0384,0.0076,0.0032,-0.0037,-0.0242,-0.0245,-0.0341,-0.034,-0.0338,-0.0284,0,0,0,0,0]}]]